Location: Torrance
(33.8360°N, 118.3400°W)
Time: 13:35:10
(UTC-08:00)

Envisat - Visible Passes

Search period start: 24 February 2020 00:00
Search period end: 05 March 2020 00:00
Orbit: 764 x 766 km, 98.1° (Epoch: 24 February)

Date Brightness Start Highest point End Pass type
(mag) Time Alt. Az. Time Alt. Az. Time Alt. Az.
24 Feb 6.6 19:17:19 10° W 19:18:10 10° W 19:19:00 10° W visible
25 Feb 5.1 05:46:57 10° NE 05:51:29 32° E 05:56:00 10° SSE visible
25 Feb 5.4 18:36:53 10° SSW 18:41:05 26° W 18:45:20 10° NW visible
26 Feb 6.4 05:12:03 10° ENE 05:14:27 13° E 05:16:51 10° ESE visible
27 Feb 6.3 19:04:09 10° SW 19:06:45 14° W 19:09:23 10° WNW visible
28 Feb 5.6 05:35:59 10° NE 05:40:08 25° E 05:44:16 10° SSE visible
28 Feb 5.0 18:25:10 10° SSW 18:29:44 34° W 18:34:20 10° NNW visible
01 Mar 6.0 18:51:53 10° SW 18:55:22 18° W 18:58:51 10° NW visible
02 Mar 6.1 05:25:08 10° NE 05:28:45 19° E 05:32:21 10° SE visible
02 Mar 4.4 18:13:34 10° S 18:18:23 44° W 18:23:15 10° NNW visible
04 Mar 5.0 05:49:43 10° NNE 05:54:23 36° E 05:59:01 10° SSE visible
04 Mar 5.7 18:39:56 10° SSW 18:43:59 24° W 18:48:03 10° NW visible
